Chamberlain, SD

12:27 AM CDT on June 25, 2017 (GMT -0500)
Chamberlain

Weather History for K9V9 - June, 2013

Change the Weather History Date:

Thursday, June 27, 2013

  Actual Average Record
Temperature  
Mean Temperature 77 °F -  
Max Temperature 88 °F 81 °F 93 °F (1997)
Min Temperature 66 °F 57 °F 50 °F (2000)
Cooling Degree Days 12    
Growing Degree Days 27 (Base 50)    
Moisture  
Dew Point 61 °F    
Average Humidity 59    
Maximum Humidity 87    
Minimum Humidity 37    
Precipitation  
Precipitation 0.08 in - - ()
Sea Level Pressure  
Sea Level Pressure 29.97 in    
Wind  
Wind Speed 5 mph (NNW)    
Max Wind Speed 9 mph    
Max Gust Speed -    
Averages and records for this station are not official NWS values.
T = Trace of Precipitation, MM = Missing Value Source: NWS Daily Summary

Daily Weather History Graph

Daily Weather History Graph

Search for Another Location

Airport or City:

Trip Planner

Search our weather history database for the weather conditions in past years. The results will help you decide how hot, cold, wet, or windy it might be!

Date:

Astronomy

Jun. 27, 2013 Rise Set
Actual Time 5:57 AM CDT 9:23 PM CDT
Civil Twilight 5:21 AM CDT 9:59 PM CDT
Nautical Twilight 4:33 AM CDT 10:46 PM CDT
Astronomical Twilight 3:34 AM CDT 11:46 PM CDT
Moon No Moon Rise 11:10 AM CDT (6/27)
Length of Visible Light 16h 38m
Length of Day
15h 26m
Waning Gibbous, 76% of the Moon is Illuminated
Jun 27
Waning Gibbous
Jun 29
Last Quarter
Jul 8
New
Jul 15
First Quarter
Jul 22
Full

Hourly Weather History & Observations

Time (CDT) Temp. Heat Index Dew Point Humidity Pressure Visibility Wind Dir Wind Speed Gust Speed Precip Events Conditions
12:52 AM 73.9 °F - 61.0 °F 64% 29.90 in - ENE 4.6 mph - N/A   Unknown
1:52 AM 73.9 °F - 60.1 °F 62% 29.90 in - North 4.6 mph - N/A   Unknown
2:52 AM 71.1 °F - 62.1 °F 73% 29.92 in - North 3.5 mph - N/A   Unknown
3:52 AM 70.0 °F - 61.0 °F 73% 29.93 in - North 8.1 mph - N/A   Unknown
4:52 AM 68.0 °F - 61.0 °F 78% 29.94 in - Calm Calm - 0.08 in   Unknown
5:52 AM 66.9 °F - 63.0 °F 87% 29.95 in - NE 4.6 mph - N/A   Unknown
6:52 AM 66.9 °F - 61.0 °F 81% 29.94 in - NNE 3.5 mph - N/A   Unknown
7:52 AM 70.0 °F - 63.0 °F 78% 29.96 in - NNW 3.5 mph - N/A   Unknown
8:52 AM 73.0 °F - 63.0 °F 71% 29.98 in - NNW 4.6 mph - N/A   Unknown
9:52 AM 75.9 °F - 59.0 °F 56% 29.99 in - Calm Calm - N/A   Unknown
10:52 AM 78.1 °F - 62.1 °F 58% 30.00 in - NNW 4.6 mph - N/A   Unknown
11:52 AM 81.0 °F 81.9 °F 62.1 °F 52% 30.01 in - Calm Calm - N/A   Unknown
12:52 PM 82.0 °F 83.4 °F 64.0 °F 54% 30.01 in - West 6.9 mph - N/A   Unknown
1:52 PM 84.0 °F 84.5 °F 62.1 °F 47% 30.01 in - Variable 6.9 mph - N/A   Unknown
2:52 PM 86.0 °F 85.0 °F 57.9 °F 38% 30.00 in - North 5.8 mph - N/A   Unknown
3:52 PM 87.1 °F 86.1 °F 57.9 °F 37% 29.99 in - NW 4.6 mph - N/A   Unknown
4:52 PM 88.0 °F 87.6 °F 60.1 °F 39% 29.98 in - NNW 8.1 mph - N/A   Unknown
5:52 PM 88.0 °F 87.6 °F 60.1 °F 39% 29.97 in - NNW 6.9 mph - N/A   Unknown
6:52 PM 86.0 °F 86.3 °F 62.1 °F 44% 29.96 in - NW 5.8 mph - N/A   Unknown
7:52 PM 81.0 °F 81.6 °F 60.1 °F 49% 29.95 in - WNW 8.1 mph - N/A   Unknown
8:52 PM 80.1 °F 81.1 °F 61.0 °F 52% 29.95 in - NNW 6.9 mph - N/A   Unknown
9:52 PM 75.0 °F - 61.0 °F 62% 29.96 in - NNW 3.5 mph - N/A   Unknown
10:52 PM 72.0 °F - 60.1 °F 66% 29.99 in - NNW 6.9 mph - N/A   Unknown
11:52 PM 72.0 °F - 55.9 °F 57% 30.00 in - NNW 9.2 mph - N/A   Unknown